Szeged, Hungary

4:32 AM CEST on September 23, 2017 (GMT +0200)
Szeged

Weather History for LHUD - August, 2013

Change the Weather History Date:

Monday, August 26, 2013

  Actual Average (LRAR) Record (LRAR)
Temperature  
Mean Temperature 66 °F -  
Max Temperature 73 °F 75 °F 97 °F (2012)
Min Temperature 59 °F 52 °F 46 °F (1998)
Cooling Degree Days 1    
Growing Degree Days 16 (Base 50)    
Moisture  
Dew Point 65 °F    
Average Humidity 93    
Maximum Humidity 100    
Minimum Humidity 83    
Precipitation  
Precipitation 0.20 in 0.05 in - ()
Sea Level Pressure  
Sea Level Pressure 29.89 in    
Wind  
Wind Speed 3 mph ()    
Max Wind Speed 7 mph    
Max Gust Speed -    
Visibility 4.8 miles    
Events Fog , Rain , Thunderstorm    
Averages and records for this station are not official NWS values.
T = Trace of Precipitation, MM = Missing Value Source: Averaged Metar Reports

Daily Weather History Graph

Daily Weather History Graph

Search for Another Location

Airport or City:

Trip Planner

Search our weather history database for the weather conditions in past years. The results will help you decide how hot, cold, wet, or windy it might be!

Date:

Astronomy

Aug. 26, 2013 Rise Set
Actual Time 5:52 AM CEST 7:29 PM CEST
Civil Twilight 5:20 AM CEST 8:01 PM CEST
Nautical Twilight 4:42 AM CEST 8:39 PM CEST
Astronomical Twilight 4:00 AM CEST 9:20 PM CEST
Moon 10:04 PM CEST (8/26) 11:58 AM CEST (8/26)
Length of Visible Light 14h 40m
Length of Day
13h 37m
Waning Gibbous, 69% of the Moon is Illuminated
Aug 26
Waning Gibbous
Aug 28
Last Quarter
Sep 5
New
Sep 12
First Quarter
Sep 19
Full

Hourly Weather History & Observations

Time (CEST) Temp. Dew Point Humidity Pressure Visibility Wind Dir Wind Speed Gust Speed Precip Events Conditions
12:45 AM 64.4 °F 64.4 °F 100% 29.89 in 6.2 mi South 2.3 mph - N/A   Mostly Cloudy
1:45 AM 62.6 °F 62.6 °F 100% 29.89 in - SSW 1.2 mph - N/A   Clear
2:00 AM 63 °F 63 °F 100% 29.87 in 16 mi SSW 2.2 mph - -   Partly Cloudy
2:45 AM 62.6 °F 60.8 °F 94% 29.86 in - NNW 2.3 mph - N/A   Clear
3:45 AM 60.8 °F 59.0 °F 94% 29.89 in - ESE 2.3 mph - N/A   Clear
4:45 AM 62.6 °F 62.6 °F 100% 29.86 in - ENE 1.2 mph - N/A   Clear
5:45 AM 62.6 °F 62.6 °F 100% 29.86 in - ESE 2.3 mph - N/A   Clear
6:15 AM 64.4 °F 64.4 °F 100% 29.86 in 5.0 mi East 1.2 mph - N/A   Mostly Cloudy
6:45 AM 64.4 °F 64.4 °F 100% 29.86 in 5.0 mi SE 2.3 mph - N/A   Mostly Cloudy
7:15 AM 66.2 °F 64.4 °F 94% 29.86 in 5.0 mi ESE 2.3 mph - N/A   Mostly Cloudy
7:45 AM 66.2 °F 64.4 °F 94% 29.86 in 5.0 mi East 2.3 mph - N/A   Scattered Clouds
8:00 AM 66 °F 65 °F 94% 29.86 in 5 mi East 2.2 mph - -   Partly Cloudy
8:15 AM 66.2 °F 64.4 °F 94% 29.89 in 5.0 mi ENE 3.5 mph - N/A   Mostly Cloudy
8:45 AM 66.2 °F 64.4 °F 94% 29.89 in 5.0 mi ENE 4.6 mph - N/A   Overcast
9:15 AM 68.0 °F 64.4 °F 88% 29.89 in 6.2 mi ENE 4.6 mph - N/A   Mostly Cloudy
9:45 AM 69.8 °F 66.2 °F 88% 29.89 in 6.2 mi ENE 5.8 mph - N/A   Mostly Cloudy
10:15 AM 69.8 °F 64.4 °F 83% 29.89 in 6.2 mi East 3.5 mph - N/A   Mostly Cloudy
10:35 AM 69.8 °F 64.4 °F 83% 29.89 in 5.0 mi East 4.6 mph - N/A Thunderstorm Thunderstorm
10:45 AM 69.8 °F 64.4 °F 83% 29.89 in 5.0 mi ESE 4.6 mph - N/A Thunderstorm Thunderstorm
10:54 AM 69.8 °F 64.4 °F 83% 29.89 in 4.3 mi ENE 2.3 mph - N/A Rain , Thunderstorm Thunderstorms and Rain
11:15 AM 68.0 °F 66.2 °F 94% 29.89 in 3.7 mi NW 3.5 mph - N/A Rain , Thunderstorm Thunderstorms and Rain
11:45 AM 68.0 °F 66.2 °F 94% 29.89 in 2.8 mi NW 5.8 mph - N/A Rain , Thunderstorm Thunderstorms and Rain
12:15 PM 66.2 °F 66.2 °F 100% 29.92 in 2.2 mi NW 6.9 mph - N/A Rain , Thunderstorm Thunderstorms and Rain
12:45 PM 66.2 °F 66.2 °F 100% 29.89 in 1.6 mi North 3.5 mph - N/A Rain , Thunderstorm Thunderstorms and Rain
1:15 PM 68.0 °F 66.2 °F 94% 29.89 in 2.2 mi North 3.5 mph - N/A Rain , Thunderstorm Thunderstorms and Rain
1:45 PM 68.0 °F 66.2 °F 94% 29.89 in 2.5 mi NNE 2.3 mph - N/A Rain Light Rain
2:00 PM 67 °F 67 °F 100% 29.88 in 2 mi NNE 2.2 mph - - Rain Light Rain
2:15 PM 68.0 °F 68.0 °F 100% 29.89 in 2.8 mi NE 3.5 mph - N/A   Overcast
2:45 PM 68.0 °F 68.0 °F 100% 29.89 in 3.1 mi NNE 4.6 mph - N/A   Overcast
3:15 PM 71.6 °F 68.0 °F 88% 29.86 in 4.3 mi NNE 5.8 mph - N/A   Scattered Clouds
3:45 PM 71.6 °F 68.0 °F 88% 29.89 in 6.2 mi NNE 2.3 mph - N/A   Mostly Cloudy
4:15 PM 69.8 °F 68.0 °F 94% 29.89 in 6.2 mi NNW 3.5 mph - N/A   Mostly Cloudy
4:45 PM 71.6 °F 66.2 °F 83% 29.89 in 5.0 mi North 1.2 mph - N/A   Scattered Clouds
5:15 PM 71.6 °F 66.2 °F 83% 29.89 in 6.2 mi Calm Calm - N/A   Scattered Clouds
5:45 PM 71.6 °F 66.2 °F 83% 29.89 in 6.2 mi SW 3.5 mph - N/A   Scattered Clouds
6:15 PM 71.6 °F 66.2 °F 83% 29.89 in 6.2 mi WSW 3.5 mph - N/A   Scattered Clouds
6:45 PM 71.6 °F 66.2 °F 83% 29.89 in 6.2 mi West 3.5 mph - N/A   Partly Cloudy
7:15 PM 69.8 °F 66.2 °F 88% 29.89 in 6.2 mi West 3.5 mph - N/A   Partly Cloudy
7:45 PM 66.2 °F 64.4 °F 94% 29.89 in 5.0 mi West 2.3 mph - N/A   Partly Cloudy
8:00 PM 67 °F 65 °F 90% 29.88 in 5 mi West 2.2 mph - -   Partly Cloudy
8:15 PM 64.4 °F 64.4 °F 100% 29.89 in 4.3 mi NW 2.3 mph - N/A Fog Fog
8:45 PM 64.4 °F 62.6 °F 94% 29.92 in 4.3 mi Calm Calm - N/A Fog Fog
9:15 PM 62.6 °F 62.6 °F 100% 29.92 in 4.3 mi Calm Calm - N/A Fog Fog
9:45 PM 62.6 °F 62.6 °F 100% 29.92 in 3.1 mi South 2.3 mph - N/A Fog Fog
10:45 PM 62.6 °F 62.6 °F 100% 29.92 in 3.1 mi NNW 2.3 mph - N/A   Partly Cloudy
11:45 PM 60.8 °F 60.8 °F 100% 29.92 in 1.6 mi West 1.2 mph - N/A   Mist